Weather Roundup
Issued by NWS

Home | Current Version | Previous Version | Graphics & Text | Print | Product List | Glossary Off
Versions: 1 2 3 4 5 6 7 8 9 10 11 12 13 14 15 16 17 18 19 20 21 22 23 24 25 26 27 28 29 30 31 32 33 34 35 36 37 38 39 40 41 42 43 44 45 46 47 48 49 50

904
NZUS93 KARX 231310
HRRWXR

CURRENT HOURLY OBSERVATIONS ACROSS
MUCH OF THE UPPER MISSISSIPPI VALLEY
NATIONAL WEATHER SERVICE LA CROSSE WI
800 AM CDT SAT SEP 23 2017


...SOUTHEAST MINNESOTA...


CITY           SKY/WX    TMP DP  RH WIND       PRES   REMARKS
ROCHESTER      SUNNY     70  66  87 S10       30.02R
ROCHESTER/MAYO FAIR      71  67  85 SE9       30.01R
WINONA         SUNNY     72  66  83 CALM      30.00S
AUSTIN         CLEAR     70  64  83 S6        30.01R
ALBERT LEA     CLEAR     73  68  83 S8        29.99S
DODGE CENTER   CLEAR     72  64  78 S13G18    30.00R
PRESTON        SUNNY     68  64  86 S9        30.04R
OWATONNA       CLEAR     72  66  83 S9        29.98R
FARIBAULT      CLEAR     72  66  83 S6        29.97R
$$

...ELSEWHERE IN MINNESOTA...


CITY           SKY/WX    TMP DP  RH WIND       PRES   REMARKS
MINNEAPOLIS    MOCLDY    74  69  85 SE5       29.96R
INTNL FALLS    CLOUDY    59  57  93 W9        29.89R FOG
DULUTH         MOCLDY    71  69  93 SW7       29.93R
RED WING       SUNNY     75  64  69 SE3       29.96R
REDWOOD FALLS  CLOUDY    62  57  83 N10       29.96R
MANKATO        PTCLDY    72  67  84 S8        29.96R
WORTHINGTON    MOCLDY    70  67  90 W3        29.97R
FAIRMONT       CLEAR     71  67  87 S6        29.97R
$$

...SOUTHWEST WISCONSIN...


CITY           SKY/WX    TMP DP  RH WIND       PRES   REMARKS
LA CROSSE      SUNNY     75  66  73 SE5       30.02R
PRAIRIE DU CHI SUNNY     70  62  76 SE3       30.04R
BOSCOBEL       SUNNY     68  65  90 CALM      30.05R
LONE ROCK      MOSUNNY   67  65  93 CALM      30.06R FOG
PLATTEVILLE    SUNNY     71  67  87 SE5       30.07S
FORT MC COY    SUNNY     68  64  87 CALM      30.05R
CAMP DOUGLAS   MOSUNNY   68  66  94 CALM      30.05R
MAUSTON-NEW LI SUNNY     70  65  85 S3        30.05R
VIROQUA        FAIR      70  66  85 S6        30.06S
WIS DELLS      SUNNY     71  64  76 CALM      30.07R
$$

...ELSEWHERE IN WISCONSIN...


CITY           SKY/WX    TMP DP  RH WIND       PRES   REMARKS
MILWAUKEE      MOSUNNY   78  66  66 SW5       30.08R
MADISON        MOSUNNY   70  65  84 CALM      30.07R
GREEN BAY      SUNNY     71  67  87 SW3       30.05R
EAU CLAIRE     SUNNY     73  66  78 S8        29.98R
BLACK RVR FLS  FAIR      64  64 100 CALM      30.03R
MEDFORD        SUNNY     67  64  91 S7        30.03S
WAUSAU         SUNNY     70  65  84 S6        30.03S
WIS RAPIDS     SUNNY     72  65  78 S5        30.07R
MARSHFIELD     SUNNY     68  63  84 S8        30.04S
RICE LAKE      SUNNY     70  66  87 SE5       29.99S
$$

...NORTHEAST IOWA...


CITY           SKY/WX    TMP DP  RH WIND       PRES   REMARKS
WATERLOO       SUNNY     69  64  84 S3        30.02R
DUBUQUE        SUNNY     68  64  87 S5        30.07R
DECORAH        SUNNY     70  64  83 S6        30.03R
MASON CITY     PTCLDY    69  66  90 S8        30.02R
CHARLES CITY   MOSUNNY   70  70 100 S6        30.04R
OELWEIN        SUNNY     68  66  94 S6        30.05R
$$

...ELSEWHERE IN IOWA...


CITY           SKY/WX    TMP DP  RH WIND       PRES   REMARKS
DES MOINES     PTCLDY    72  67  84 SE8       30.01R
IOWA CITY      SUNNY     68  64  87 CALM      30.06R
FORT DODGE     MOCLDY    72  67  84 S7        30.00R
MARSHALLTOWN   SUNNY     69  66  90 SE3       30.02R
CEDAR RAPIDS   SUNNY     69  64  84 S3        30.04R
$$

...NORTHERN ILLINOIS...


CITY           SKY/WX    TMP DP  RH WIND       PRES   REMARKS
CHICAGO-OHARE  MOSUNNY   78  66  66 SE3       30.09R
CHICAGO-MIDWAY MOSUNNY   78  66  66 S5        30.09R
MOLINE         SUNNY     71  65  81 CALM      30.05R
ROCKFORD       SUNNY     70  65  84 CALM      30.10R
PEORIA         SUNNY     73  67  81 CALM      30.07R
$$

NOTE: "FAIR" INDICATES FEW OR NO CLOUDS BELOW 12,000 FEET WITH NO
SIGNIFICANT WEATHER AND/OR OBSTRUCTIONS TO VISIBILITY. WIND
SPEEDS ARE IN MILES-PER-HOUR.




USA.gov is the U.S. government's official web portal to all federal, state and local government web resources and services.